Temperature
21 19 19 19 19 20 21 21 20 21 22 22 22 21 20 20 21 21 21 21 21 22 22 22 22 22 22 22 22 22 21 21 20 20 19 19 19 18 18 18 18 18 18 18
18 19 20 20 20 20 20 20 20 21 22 22 21 21 20 19 19 20 20 19 20 20 20 20 20 20 21 21 21 21 21 21 20 20 19 19 19 18 18 18 18 18 18 19
21 21 22 22 21 21 21 21 21 21 21 21 21 20 19 19 18 18 18 18 19 19 20 20 20 19 19 20 20 20 20 20 20 19 19 19 18 18 18 18 18 18 18 18
21 21 22 22 22 22 21 22 22 22 20 19 20 18 19 17 17 17 17 17 17 18 18 19 19 19 19 19 19 19 19 19 19 19 18 18 18 18 18 18 18 17 18 18
21 22 22 22 22 23 22 21 21 20 20 19 18 18 17 16 16 16 16 16 17 17 17 17 18 18 18 18 19 19 19 19 19 18 18 17 17 18 17 17 17 17 17 17
21 21 22 22 22 22 21 19 18 15 16 17 18 18 16 15 16 16 16 16 16 16 17 17 17 17 17 17 17 18 18 18 18 18 17 17 17 17 16 16 16 16 16 16
20 21 21 22 22 20 19 17 16 16 15 16 17 17 16 16 16 15 15 15 16 17 17 17 17 17 17 16 17 17 17 16 16 16 16 16 16 16 15 15 15 15 15 15
19 19 21 22 22 21 19 17 16 16 15 15 16 16 15 15 15 15 15 15 16 16 16 17 17 17 16 16 16 16 16 16 16 15 15 15 15 15 15 15 15 15 15 15
18 19 21 21 20 20 18 16 16 14 15 14 14 15 15 15 14 14 14 14 15 16 16 16 16 16 16 16 15 15 15 15 15 15 14 14 14 14 14 14 14 14 14 14
18 19 20 20 20 17 17 14 13 14 15 14 14 14 15 16 15 14 14 14 15 16 15 15 15 15 15 14 14 14 14 14 14 14 14 14 14 13 14 14 14 14 14 14
18 18 19 19 19 19 16 15 13 12 13 13 13 13 14 15 14 14 14 15 16 15 15 15 14 14 14 14 14 14 14 13 13 13 13 13 13 13 13 13 13 13 14 14
16 15 16 17 17 17 17 15 12 14 14 12 12 12 14 13 13 13 14 15 16 15 15 14 14 13 13 13 13 13 13 13 13 13 13 13 13 13 13 13 13 13 13 13
15 15 15 15 15 17 16 14 13 11 11 10 11 13 14 13 13 14 14 15 15 14 14 13 13 13 13 13 13 13 13 13 13 13 13 12 12 12 13 13 13 13 13 13
15 14 15 16 16 16 16 15 12 11 11 11 11 13 14 13 12 13 14 15 14 14 13 13 13 12 12 12 12 12 12 12 12 12 12 12 12 12 12 12 12 12 12 12
15 15 15 15 15 16 16 16 14 12 12 12 13 12 13 13 12 14 14 14 14 13 13 12 12 12 12 12 12 12 12 12 12 12 12 12 12 12 12 12 12 12 12 12
14 16 15 15 16 16 15 16 15 14 13 12 12 13 13 13 14 14 14 14 13 13 13 12 12 12 12 12 12 12 12 12 12 12 12 12 12 11 11 11 11 11 11 11
13 13 13 13 15 16 15 15 15 15 14 13 13 14 13 13 12 14 15 14 14 13 13 12 12 12 12 12 12 12 12 12 12 12 12 11 11 11 11 11 11 11 11 11
11 11 11 12 14 14 15 16 16 15 15 13 13 13 13 13 15 15 15 15 14 14 13 13 12 12 12 12 12 12 11 11 11 11 11 11 11 11 11 11 11 11 11 11
11 11 10 10 12 13 15 16 16 15 15 14 14 14 15 14 13 14 16 15 15 14 13 13 12 12 12 12 11 11 11 11 11 11 11 11 11 11 11 11 10 10 10 11
11 11 11 11 13 13 14 17 17 16 15 15 14 14 14 12 11 13 17 16 15 14 13 13 12 12 12 11 11 11 11 11 11 11 11 11 11 11 10 10 10 10 10 10
13 12 11 11 11 13 14 16 16 15 15 17 17 17 15 12 15 17 16 16 15 14 13 12 12 12 11 11 11 11 11 11 11 11 10 10 10 10 10 10 10 10 10 10
13 12 11 10 11 12 15 15 15 15 18 18 18 18 18 18 18 17 16 15 15 14 13 12 12 12 11 11 11 11 10 10 10 10 10 10 10 10 10 10 10 10 10 9
11 12 11 11 13 14 16 16 18 18 18 19 19 19 18 18 18 17 16 16 15 14 13 12 12 12 11 11 11 11 10 10 10 10 10 10 10 10 10 9 9 9 9 9
11 11 10 10 11 13 17 17 18 18 18 18 19 19 18 18 18 17 17 16 15 14 13 13 12 12 11 11 11 11 10 10 10 10 10 9 9 9 9 9 9 9 9 9
12 12 10 11 11 13 16 18 18 18 18 18 18 18 18 18 18 18 17 16 15 15 14 13 12 12 11 11 11 11 10 10 10 10 9 9 9 9 9 9 9 9 9 9
10 12 12 13 14 13 15 17 17 17 17 18 18 18 18 18 18 18 17 17 16 15 14 13 12 12 12 11 11 11 10 10 10 10 9 9 9 9 9 9 9 9 9 9
Wind_Speed
4 5 3 6 7 5 2 3 7 8 6 4 6 7 10 10 3 3 6 8 10 10 7 5 6 8 9 10 11 12 11 10 8 6 7 6 5 4 3 3 3 3 3 3
6 4 7 6 4 4 3 4 5 6 6 3 5 6 6 8 6 3 1 2 2 1 1 2 2 2 4 4 4 4 6 8 8 7 6 3 3 3 2 2 2 3 2 2
2 5 5 2 1 1 1 3 4 5 6 6 7 9 7 6 8 11 10 6 3 2 1 2 4 5 5 4 4 4 4 4 4 4 3 3 3 2 2 1 1 3 4 4
3 5 4 4 2 2 3 4 4 2 3 5 4 5 6 6 8 10 10 8 6 5 3 2 2 3 4 4 2 2 3 3 3 4 3 5 4 4 3 3 2 1 2 2
4 4 4 3 3 1 3 2 3 2 1 2 4 1 7 6 7 8 9 7 6 4 4 3 2 2 2 2 1 0 2 2 3 4 3 4 3 3 3 3 3 2 1 2
5 4 3 3 2 1 2 6 6 6 5 2 3 2 6 3 3 6 6 6 6 5 4 4 4 3 3 3 3 1 1 1 1 3 4 4 5 5 5 5 4 2 1 1
6 7 4 1 1 5 6 6 5 6 5 5 5 3 7 3 2 3 3 3 3 3 3 3 3 3 3 3 2 1 0 1 1 2 3 3 4 5 5 5 4 3 1 0
2 6 5 2 2 2 2 6 5 4 5 6 6 5 6 3 3 3 4 4 3 4 3 3 3 2 2 2 2 1 2 3 3 3 3 3 4 4 3 3 3 3 2 0
6 6 4 3 2 5 4 3 4 6 1 3 6 7 7 3 5 6 6 6 6 6 6 6 5 5 4 3 2 2 2 2 2 4 5 5 5 5 4 3 3 2 1 0
9 5 4 2 4 6 3 7 5 4 2 5 7 6 5 7 7 7 8 8 9 8 7 7 6 5 4 3 2 1 1 2 4 3 4 5 5 5 4 4 3 2 1 1
6 6 4 4 1 1 3 4 5 4 4 4 5 8 7 8 8 8 10 9 9 9 9 8 6 5 4 3 2 1 2 3 4 4 4 5 5 5 4 4 3 2 2 2
4 5 3 5 4 2 3 6 7 4 5 5 4 8 8 8 8 8 10 10 9 9 8 7 6 5 4 4 3 2 3 3 4 5 5 5 5 5 4 4 3 3 4 4
7 6 2 8 7 2 2 4 4 5 4 5 5 9 5 4 7 8 9 10 10 9 8 6 4 3 3 3 2 2 2 3 3 4 5 5 5 5 4 4 4 4 5 6
7 6 7 8 9 6 5 5 6 6 5 6 10 12 13 11 11 10 9 9 9 8 6 4 2 2 2 2 2 2 1 2 3 4 5 5 4 4 4 4 4 5 5 6
6 5 8 8 7 5 7 9 8 10 10 11 11 11 15 12 9 8 7 7 7 7 5 3 2 2 2 1 2 2 1 2 3 4 4 4 4 4 5 5 5 5 6 6
4 5 5 5 7 7 7 11 11 10 8 9 9 12 13 8 6 6 7 6 7 7 6 4 4 4 3 3 3 2 1 2 3 4 4 4 5 5 5 5 6 6 6 5
4 7 5 5 4 2 8 11 10 8 8 10 11 13 7 6 9 9 8 7 7 7 6 5 5 5 5 5 4 4 3 2 3 4 4 4 5 5 5 6 6 6 5 4
8 6 5 3 2 7 10 5 7 8 9 10 9 8 8 10 7 7 8 8 9 8 7 6 6 5 5 4 3 3 3 3 4 4 4 4 5 5 5 6 6 5 4 5
6 8 5 4 5 8 9 7 7 8 9 9 11 10 7 3 1 6 9 9 10 9 7 7 6 5 4 4 4 4 3 4 5 5 5 5 6 6 6 6 5 4 4 4
5 5 5 4 5 7 11 6 4 5 7 8 10 11 6 7 2 8 7 8 9 8 6 6 5 4 5 4 4 5 4 5 5 5 5 4 5 6 6 5 4 3 5 5
2 1 4 6 7 9 10 5 6 5 9 6 9 10 9 10 12 7 3 6 8 8 8 7 7 6 6 5 5 5 5 6 5 5 5 5 5 5 5 4 4 6 7 7
4 4 5 5 5 9 5 6 8 10 6 5 8 10 11 13 12 8 6 7 8 8 8 8 7 6 5 6 6 6 6 5 5 6 6 5 5 4 5 5 5 6 7 7
7 8 6 9 10 8 6 9 9 6 7 8 8 11 12 12 11 10 9 9 9 10 9 8 8 7 6 6 7 7 6 6 7 7 6 5 5 4 5 6 7 6 6 6
6 5 5 8 11 11 11 9 9 9 11 12 11 11 10 13 12 11 10 9 9 10 9 8 8 8 7 7 7 7 6 8 8 8 6 5 5 5 4 4 5 6 6 6
9 5 6 9 11 10 10 11 12 12 11 11 11 10 12 13 13 11 11 11 11 11 9 8 9 10 10 8 8 7 8 9 8 7 6 6 5 5 5 4 3 4 4 5
6 8 8 12 14 10 10 11 10 10 11 11 11 10 10 13 15 13 13 12 12 12 10 9 10 10 9 8 9 9 9 10 9 7 7 6 5 5 5 5 4 5 2 4
Wind_Direction
39 48 292 251 210 208 237 290 294 283 296 320 305 307 322 345 318 232 203 195 198 208 211 199 200 198 198 201 202 204 203 204 192 187 191 191 193 191 193 196 201 208 214 206
30 314 264 251 215 208 239 287 295 299 326 350 317 319 339 17 8 339 231 212 227 277 349 321 298 256 232 228 224 214 204 202 197 197 191 180 165 166 147 133 96 63 52 43
213 265 307 349 68 147 252 214 257 285 330 7 4 344 353 6 21 33 34 30 27 33 353 345 335 320 312 272 232 214 202 196 195 192 157 130 117 110 114 96 54 22 24 25
279 284 342 14 23 122 291 260 243 272 17 323 12 313 314 351 13 23 18 13 6 4 8 5 321 288 283 283 264 208 179 166 164 164 182 187 188 187 179 168 149 68 25 24
292 298 331 327 295 272 253 20 43 23 137 331 349 253 291 356 8 2 358 4 1 5 8 349 331 325 341 0 10 59 152 156 152 147 185 208 191 178 154 148 138 137 81 41
260 279 249 251 311 16 87 64 49 43 62 319 293 282 283 321 331 325 339 351 357 1 5 356 352 4 10 12 17 29 169 140 133 140 157 185 170 153 152 150 148 150 124 40
323 323 317 280 2 18 62 70 15 351 1 265 287 259 249 237 266 293 302 311 322 336 343 339 346 352 352 350 349 334 154 159 138 139 138 153 148 149 155 152 150 146 142 93
280 301 308 334 188 190 102 132 159 231 241 278 313 257 254 219 230 251 254 258 268 277 280 281 284 283 290 296 297 268 210 182 161 148 128 118 123 127 131 136 137 140 143 127
195 252 300 360 24 127 126 133 159 143 208 276 281 293 299 214 245 251 253 258 260 262 267 268 274 274 272 273 271 251 218 153 141 140 135 127 126 125 129 124 116 117 111 78
170 219 278 302 68 40 93 140 101 126 208 272 288 282 254 246 251 257 259 261 264 264 263 263 265 270 276 276 287 281 205 155 141 146 143 135 128 128 130 121 112 104 80 39
153 178 285 358 37 257 114 105 112 125 162 183 268 271 233 233 243 252 262 264 267 269 265 261 261 263 265 264 255 210 182 161 149 148 142 135 131 129 123 115 112 104 71 43
126 132 238 281 287 281 203 177 151 164 225 194 215 268 261 243 256 256 269 278 278 273 269 267 265 261 255 253 242 206 182 166 163 154 147 143 137 134 126 111 92 80 69 55
138 118 35 337 339 345 102 146 148 131 132 173 196 263 285 277 279 267 266 279 285 282 277 278 279 265 255 253 257 226 184 171 160 154 149 142 141 136 121 102 88 80 76 62
124 135 174 214 227 213 224 197 165 150 180 219 225 253 283 282 277 277 273 277 284 280 274 272 266 271 273 273 269 257 218 153 140 142 143 143 142 136 126 111 97 89 83 72
125 185 218 233 237 211 228 234 199 197 206 215 241 244 261 265 259 261 265 277 284 280 265 238 205 208 234 256 256 228 183 122 121 126 131 135 132 128 122 111 101 94 85 79
132 195 204 259 252 237 255 253 238 225 220 225 248 262 255 254 243 252 258 266 273 270 256 225 194 194 190 208 229 212 170 132 126 126 128 128 126 124 123 118 110 102 92 82
176 162 167 254 281 326 270 243 227 220 214 198 224 245 255 236 236 237 242 237 247 250 244 220 197 191 196 207 210 201 193 153 132 131 129 130 128 123 121 123 116 113 108 96
164 149 165 214 153 230 243 239 203 218 243 220 228 242 227 227 239 239 226 223 234 236 230 217 201 196 199 202 199 190 174 160 149 139 134 133 128 121 119 117 117 118 116 110
159 146 146 160 216 264 286 259 198 204 259 230 222 241 243 215 337 287 236 214 221 225 222 211 196 188 191 199 196 180 174 165 157 152 145 142 140 134 130 126 125 122 121 110
83 113 140 164 206 246 248 254 177 139 267 248 212 232 208 135 234 268 254 216 218 217 207 196 183 176 190 204 183 176 179 172 172 164 151 145 144 144 141 137 130 122 121 112
34 93 189 208 228 259 254 239 134 174 242 250 209 217 186 190 219 230 222 211 204 198 196 187 178 187 202 189 169 179 187 194 185 158 145 143 143 144 140 129 123 127 120 112
225 226 223 193 211 256 251 157 187 220 236 241 222 215 206 219 235 232 225 221 201 191 190 182 184 203 205 183 173 183 200 196 161 146 141 139 140 142 137 129 124 127 128 121
216 206 208 202 222 240 233 215 234 229 235 242 230 227 215 224 235 229 222 215 205 197 193 186 189 201 203 191 183 190 195 165 151 144 142 138 132 128 136 140 138 133 135 135
267 218 220 254 261 257 253 252 256 240 234 244 238 231 213 220 229 221 215 208 204 201 195 186 183 194 205 200 196 194 173 160 152 150 148 144 137 131 134 141 150 151 154 150
238 234 239 257 268 281 275 258 254 259 255 253 250 233 219 220 226 215 211 208 205 201 192 184 190 200 207 198 197 188 170 160 157 157 155 152 149 145 141 133 139 163 172 172
226 223 237 260 259 249 256 258 258 261 262 257 253 252 234 217 224 214 212 209 202 199 191 191 200 206 207 196 196 188 175 167 162 164 166 163 159 154 150 141 109 65 106 166
Height
1506 1511 1515 1512 1511 1511 1511 1514 1516 1509 1498 1499 1499 1498 1492 1486 1484 1484 1484 1485 1486 1488 1491 1495 1497 1499 1501 1503 1505 1506 1508 1510 1512 1514 1516 1517 1518 1521 1523 1524 1526 1527 1528 1528
1512 1514 1506 1503 1505 1508 1511 1515 1514 1506 1498 1498 1500 1498 1494 1490 1489 1487 1487 1488 1489 1491 1493 1495 1498 1500 1501 1503 1503 1505 1506 1507 1509 1510 1512 1514 1515 1517 1518 1520 1521 1523 1523 1524
1513 1509 1502 1502 1505 1508 1510 1512 1510 1508 1503 1500 1502 1505 1499 1495 1493 1491 1491 1491 1492 1492 1493 1495 1498 1500 1501 1502 1502 1502 1503 1505 1506 1508 1509 1510 1511 1512 1513 1515 1517 1518 1519 1519
1509 1505 1504 1504 1505 1506 1512 1504 1504 1505 1511 1517 1512 1524 1508 1503 1499 1496 1495 1494 1494 1494 1494 1494 1495 1496 1498 1499 1499 1499 1500 1501 1502 1504 1505 1506 1506 1506 1508 1509 1511 1513 1515 1515
1510 1505 1505 1507 1504 1503 1505 1502 1505 1508 1511 1518 1516 1522 1517 1508 1505 1502 1499 1497 1495 1494 1494 1494 1494 1495 1495 1495 1495 1495 1496 1497 1497 1498 1500 1501 1501 1502 1503 1504 1506 1508 1509 1510
1507 1503 1503 1503 1501 1501 1502 1507 1513 1519 1524 1532 1520 1523 1523 1513 1509 1505 1501 1499 1496 1495 1494 1494 1493 1492 1492 1492 1491 1492 1493 1493 1494 1494 1494 1496 1497 1497 1499 1499 1502 1504 1505 1506
1512 1506 1502 1501 1503 1504 1507 1520 1536 1537 1543 1538 1522 1523 1520 1507 1505 1504 1502 1500 1497 1496 1494 1493 1492 1490 1490 1489 1489 1489 1489 1488 1489 1490 1490 1492 1493 1494 1496 1497 1499 1500 1502 1502
1522 1522 1505 1501 1503 1508 1511 1519 1538 1545 1547 1538 1524 1522 1513 1504 1504 1503 1501 1499 1497 1495 1494 1492 1490 1489 1488 1487 1486 1486 1486 1485 1486 1486 1487 1489 1490 1492 1494 1495 1497 1498 1499 1499
1521 1520 1504 1502 1501 1504 1513 1520 1521 1535 1537 1542 1533 1522 1508 1503 1503 1501 1499 1497 1495 1494 1492 1491 1489 1487 1486 1485 1484 1484 1483 1483 1483 1483 1484 1487 1488 1490 1492 1494 1495 1495 1496 1496
1510 1517 1507 1504 1503 1508 1510 1518 1529 1535 1541 1546 1536 1527 1518 1504 1501 1499 1496 1494 1492 1491 1490 1488 1487 1486 1485 1483 1482 1481 1481 1480 1481 1482 1483 1484 1487 1489 1491 1492 1493 1494 1494 1494
1505 1516 1512 1509 1509 1510 1515 1521 1527 1536 1537 1544 1545 1531 1504 1500 1496 1495 1493 1491 1490 1488 1487 1485 1484 1483 1482 1482 1481 1480 1480 1480 1481 1482 1483 1484 1485 1488 1490 1491 1492 1493 1493 1493
1507 1516 1522 1516 1509 1508 1510 1515 1524 1532 1533 1538 1541 1528 1495 1495 1492 1492 1490 1488 1487 1485 1483 1482 1480 1480 1480 1480 1479 1479 1479 1479 1480 1481 1483 1484 1485 1487 1489 1490 1491 1492 1492 1492
1506 1517 1528 1526 1522 1512 1511 1514 1518 1526 1533 1540 1541 1523 1494 1492 1490 1489 1487 1485 1484 1482 1480 1478 1477 1477 1477 1478 1478 1478 1478 1478 1479 1480 1481 1483 1484 1486 1488 1489 1490 1491 1491 1491
1500 1513 1521 1525 1519 1512 1511 1511 1516 1522 1530 1532 1527 1512 1496 1491 1489 1485 1484 1482 1481 1479 1477 1475 1475 1475 1475 1476 1477 1477 1477 1477 1478 1479 1480 1482 1483 1485 1487 1488 1489 1490 1490 1491
1499 1509 1510 1509 1505 1506 1506 1505 1508 1514 1513 1516 1508 1504 1492 1486 1484 1482 1480 1479 1478 1476 1474 1473 1473 1473 1474 1475 1476 1477 1477 1477 1478 1478 1480 1481 1482 1484 1486 1487 1488 1489 1490 1491
1499 1504 1507 1506 1501 1503 1503 1499 1499 1501 1502 1503 1500 1495 1481 1480 1479 1478 1477 1477 1475 1474 1472 1471 1472 1473 1474 1475 1476 1476 1477 1477 1477 1478 1479 1480 1482 1483 1485 1486 1488 1489 1490 1491
1502 1505 1512 1513 1503 1502 1505 1492 1490 1491 1489 1491 1492 1484 1476 1477 1475 1474 1474 1473 1473 1472 1471 1470 1471 1472 1473 1474 1475 1475 1476 1476 1477 1478 1479 1480 1481 1483 1484 1486 1487 1489 1490 1491
1501 1507 1513 1514 1509 1513 1494 1479 1479 1482 1480 1479 1477 1474 1472 1471 1470 1471 1470 1470 1470 1469 1469 1469 1470 1470 1472 1473 1474 1474 1474 1475 1476 1477 1478 1479 1480 1482 1483 1485 1487 1489 1490 1491
1493 1502 1513 1517 1515 1504 1487 1475 1475 1478 1477 1470 1470 1468 1468 1469 1469 1467 1466 1466 1466 1467 1467 1467 1468 1469 1470 1471 1472 1472 1472 1473 1474 1476 1477 1478 1479 1481 1482 1484 1486 1488 1490 1491
1495 1498 1507 1513 1510 1507 1485 1469 1467 1472 1476 1464 1464 1464 1465 1467 1472 1466 1462 1462 1462 1463 1464 1465 1466 1468 1469 1470 1470 1470 1471 1471 1473 1475 1476 1477 1479 1480 1481 1483 1485 1487 1489 1491
1499 1501 1505 1508 1507 1492 1472 1466 1469 1480 1474 1459 1458 1458 1460 1461 1460 1459 1458 1459 1459 1460 1462 1463 1464 1466 1467 1467 1468 1468 1469 1470 1472 1473 1475 1476 1478 1479 1481 1482 1484 1486 1488 1490
1497 1501 1502 1503 1504 1492 1464 1466 1468 1464 1456 1455 1454 1454 1454 1453 1454 1454 1455 1455 1456 1457 1458 1460 1462 1463 1464 1465 1465 1466 1467 1468 1470 1472 1474 1475 1477 1478 1480 1481 1483 1485 1487 1489
1492 1489 1488 1488 1481 1465 1461 1459 1457 1455 1453 1451 1450 1449 1449 1449 1449 1450 1451 1451 1453 1454 1455 1457 1458 1460 1461 1462 1463 1464 1465 1466 1468 1470 1472 1474 1475 1477 1479 1480 1482 1484 1486 1488
1483 1478 1480 1477 1467 1459 1455 1453 1452 1450 1448 1446 1445 1444 1444 1444 1444 1445 1446 1447 1448 1450 1452 1453 1455 1456 1458 1459 1460 1461 1463 1464 1466 1468 1470 1472 1473 1475 1477 1479 1481 1483 1485 1487
1478 1474 1475 1471 1460 1454 1450 1448 1446 1444 1442 1440 1439 1438 1437 1437 1438 1439 1440 1442 1443 1445 1448 1450 1451 1452 1454 1455 1457 1458 1460 1461 1463 1465 1467 1469 1471 1473 1475 1477 1479 1481 1483 1485
1470 1469 1468 1461 1452 1450 1445 1442 1440 1438 1436 1435 1433 1432 1431 1431 1431 1432 1434 1436 1438 1440 1443 1445 1447 1448 1450 1452 1453 1455 1456 1458 1460 1462 1464 1466 1469 1471 1473 1475 1477 1479 1481 1483